This is the latest recevied weather packets stored in our database for station/object IZ0DPP-10. If no packets are shown the sender has not sent any weather packets the latest 10 day(s).
| Time | Temp. | Humidity | Pressure | Rain* | Wind** | Luminosity | Snow |
|---|---|---|---|---|---|---|---|
| 1777158033 | 13.89° C | 100% | 1019.5 hPa | - | - | - | - |
| 1777157133 | 14.44° C | 100% | 1019.4 hPa | - | - | - | - |
| 1777156233 | 15° C | 100% | 1019.4 hPa | - | - | - | - |
| 1777155333 | 15° C | 100% | 1019.2 hPa | - | - | - | - |
| 1777154432 | 14.44° C | 100% | 1019 hPa | - | - | - | - |
| 1777153531 | 16.11° C | 100% | 1019.1 hPa | - | - | - | - |
| 1777152634 | 15° C | 100% | 1019.1 hPa | - | - | - | - |
| 1777151734 | 16.11° C | 100% | 1019 hPa | - | - | - | - |
| 1777150834 | 15.56° C | 100% | 1018.9 hPa | - | - | - | - |
| 1777149934 | 16.11° C | 100% | 1018.6 hPa | - | - | - | - |
| 1777149034 | 16.11° C | 100% | 1018.5 hPa | - | - | - | - |
| 1777148134 | 16.67° C | 100% | 1018.5 hPa | - | - | - | - |
| 1777147234 | 17.78° C | 100% | 1018.3 hPa | - | - | - | - |
| 1777146334 | 17.22° C | 100% | 1018.2 hPa | - | - | - | - |
| 1777145433 | 18.33° C | 100% | 1018.1 hPa | - | - | - | - |
| 1777144533 | 18.33° C | 100% | 1017.7 hPa | - | - | - | - |
| 1777143633 | 17.78° C | 100% | 1017.6 hPa | - | - | - | - |
| 1777142736 | 21.11° C | 100% | 1017.3 hPa | - | - | - | - |
| 1777141833 | 19.44° C | 100% | 1017.1 hPa | - | - | - | - |
| 1777140933 | 20° C | 100% | 1016.9 hPa | - | - | - | - |
| 1777140033 | 22.22° C | 100% | 1016.7 hPa | - | - | - | - |
| 1777139133 | 23.89° C | 100% | 1016.4 hPa | - | - | - | - |
| 1777138511 | 24.44° C | 100% | 1016.4 hPa | - | - | - | - |
| 1777138233 | 24.44° C | 100% | 1016.4 hPa | - | - | - | - |
| 1777137333 | 25° C | 100% | 1016.3 hPa | - | - | - | - |
* Rain since midnight (hover to see other rain measurements)
** Current wind speed in m/s (hover to see current wind gust speed)